Location: ???????
(55.3754°N, 39.3545°E)
Time: 15:09:14
(UTC+00:00)

Landsat 5 - Pass Details

Date: 14 April 2026
Orbit: 507 x 601 km, 98.1° (Epoch: 17 May)

Event Time Altitude Azimuth Distance (km) Brightness Sun altitude
Rises 22:08:05 0° 14° (NNE) 2,828 8.4 -24.3°
Reaches altitude 10° 22:10:14 10° 12° (NNE) 1,934 7.2 -24.2°
Enters shadow 22:14:21 72° 300° (WNW) 635 3.5 -24.1°
